TimeEDT,TemperatureF,Dew PointF,Humidity,Sea Level PressureIn,VisibilityMPH,Wind Direction,Wind SpeedMPH,Gust SpeedMPH,PrecipitationIn,Events,Conditions,WindDirDegrees,DateUTC
12:53 AM,68.0,60.1,76,30.11,10.0,ESE,9.2,-,N/A,,Clear,120,2013-04-09 04:53:00
1:53 AM,66.9,60.1,79,30.10,10.0,SE,6.9,-,N/A,,Clear,130,2013-04-09 05:53:00
2:53 AM,66.0,60.1,81,30.08,10.0,ESE,8.1,-,N/A,,Clear,120,2013-04-09 06:53:00
3:53 AM,64.0,60.1,87,30.07,10.0,ESE,5.8,-,N/A,,Clear,120,2013-04-09 07:53:00
4:53 AM,64.0,60.1,87,30.06,10.0,East,5.8,-,N/A,,Clear,100,2013-04-09 08:53:00
5:53 AM,63.0,60.1,90,30.07,10.0,East,3.5,-,N/A,,Clear,100,2013-04-09 09:53:00
6:53 AM,62.1,60.1,93,30.09,10.0,East,5.8,-,N/A,,Clear,90,2013-04-09 10:53:00
7:53 AM,64.0,61.0,90,30.10,10.0,East,5.8,-,N/A,,Clear,80,2013-04-09 11:53:00
8:53 AM,70.0,64.0,81,30.12,10.0,East,8.1,-,N/A,,Clear,100,2013-04-09 12:53:00
9:53 AM,73.9,64.0,71,30.13,10.0,East,9.2,-,N/A,,Clear,100,2013-04-09 13:53:00
10:53 AM,79.0,63.0,58,30.14,10.0,SE,13.8,-,N/A,,Clear,130,2013-04-09 14:53:00
11:53 AM,79.0,62.1,56,30.14,10.0,SE,10.4,19.6,N/A,,Scattered Clouds,130,2013-04-09 15:53:00
12:53 PM,82.0,60.1,47,30.12,10.0,East,11.5,-,N/A,,Mostly Cloudy,100,2013-04-09 16:53:00
1:53 PM,84.0,57.9,41,30.10,10.0,East,15.0,25.3,N/A,,Scattered Clouds,100,2013-04-09 17:53:00
2:53 PM,84.9,59.0,41,30.08,10.0,SE,10.4,-,N/A,,Scattered Clouds,140,2013-04-09 18:53:00
3:53 PM,77.0,63.0,62,30.07,10.0,WSW,9.2,-,N/A,,Overcast,240,2013-04-09 19:53:00
4:53 PM,78.1,64.0,62,30.07,10.0,WSW,8.1,-,N/A,,Mostly Cloudy,250,2013-04-09 20:53:00
5:53 PM,78.1,62.1,58,30.06,10.0,West,8.1,-,N/A,,Scattered Clouds,280,2013-04-09 21:53:00
6:53 PM,78.1,63.0,60,30.06,10.0,WNW,6.9,-,N/A,,Mostly Cloudy,300,2013-04-09 22:53:00
7:53 PM,75.0,62.1,64,30.07,10.0,Calm,Calm,-,N/A,,Mostly Cloudy,0,2013-04-09 23:53:00
8:53 PM,75.9,62.1,62,30.08,10.0,ENE,3.5,-,N/A,,Overcast,70,2013-04-10 00:53:00
9:53 PM,75.9,61.0,60,30.10,10.0,East,10.4,-,N/A,,Mostly Cloudy,90,2013-04-10 01:53:00
10:53 PM,73.0,61.0,66,30.11,10.0,East,9.2,-,N/A,,Clear,90,2013-04-10 02:53:00
11:53 PM,70.0,61.0,73,30.10,10.0,East,9.2,-,N/A,,Clear,90,2013-04-10 03:53:00